sat.trackr.live / text

‹ back to catalog

STARLINK-34347

NORAD 64226 · 2025-117Z

PAYLOAD ACTIVE UNKNOWN

§ Identity

Operator
Country
US
Launch date
2025-05-31
Launch site
AFWTR
Launch vehicle
Mass (kg)
RCS (m²)

Purposes: comms

External: N2YO · Heavens-Above · Gunter

§ Orbital elements

Epoch: 2026-05-24T23:24:17.090784Z

Period
94.10 min
Inclination
53.1609°
Eccentricity
0.0001137
Mean motion
15.30237924 rev/d
Perigee alt
474.3 km
Apogee alt
475.9 km
Semi-major
6,853.2 km
B*
1.0648e-3
RAAN
45.3803°
Arg perigee
83.0072°
Mean anomaly
277.1058°
Rev number
5,620

§ Raw data

STARLINK-343471 64226U 25117Z   26144.97519781  .00031348  00000+0  10648-2 0  99992 64226  53.1609  45.3803 0001137  83.0072 277.1058 15.30237924 56200

JSON: /api/v1/satellites/64226 · /tle

For live sub-satellite position, see the globe view (requires WebGL).

§ Visibility from observer

Set your observer location to see the next 7 days of passes ≥ 10°. The values pass through the URL so the page stays shareable.

No JS? Fill the form by hand. The geolocation button needs JavaScript.